#timestamp,LO_Frequency,Hit,StdDev 
1606334415.2,286047005.2,P
1606334435.0,286047005.3,Y
1606334435.9,286047005.3,P
1606334455.8,286047000.2,N
1606334475.6,286047000.3,N
1606334495.4,286047001.9,N
1606334515.3,286047003.8,N
1606334535.1,286047004.0,N
1606334555.8,286047001.3,N
1606334575.7,286047003.5,N
1606334595.5,286047006.0,Y
1606334615.3,286047002.5,P
1606334635.2,286047002.6,P
1606334655.9,286047002.5,P
1606334675.7,286047004.0,Y
1606334695.6,286047000.3,P
1606334715.4,286047001.7,N
1606334735.2,286047002.6,N
1606334755.1,286047002.8,N
1606334756.0,286047002.8,N
1606334775.8,286047003.9,Y
1606334795.6,286046999.8,P
1606334815.5,286047000.1,N
1606334835.3,286047002.4,N
1606334855.1,286047000.0,N
1606334875.9,286047001.8,N
1606334895.7,286047001.9,N
1606334915.5,286047001.5,N
1606334935.4,286047004.2,Y
1606334955.2,286047002.5,P
1606334975.0,286047004.4,P
1606334975.9,286047004.4,P
1606334995.8,286047005.4,Y
1606335015.6,286047003.7,P
1606335035.4,286047005.5,P
1606335055.3,286047005.6,P
1606335075.1,286047002.9,N
1606335095.8,286047004.5,Y
1606335115.7,286046999.9,P
1606335135.5,286047000.0,N
1606335155.3,286047002.7,N
1606335175.2,286047004.4,N
1606335195.9,286047004.2,N
1606335215.7,286047004.2,N
1606335235.6,286047003.8,N
1606335255.4,286047005.5,Y
1606335275.2,286047001.6,P
1606335295.1,286047001.5,N
1606335296.0,286047001.5,N
1606335315.8,286047003.7,Y
1606335335.6,286047002.4,P
1606335355.5,286047002.8,P
1606335375.3,286047000.2,N
1606335395.1,286047002.5,N
1606335415.9,286047002.0,N
1606335435.7,286047002.0,N
1606335455.5,286047001.9,N
1606335475.4,286047004.1,Y
1606335495.2,286046999.8,P
1606335515.0,286047001.5,N
1606335515.9,286047001.5,N
1606335535.8,286047003.0,Y
1606335555.6,286047004.1,P
1606335575.4,286047003.5,N
1606335595.3,286047001.9,N
1606335615.1,286047001.6,N
1606335616.0,286047001.6,N
1606335635.8,286047005.9,Y
1606335655.7,286047003.8,P
1606335675.5,286047002.5,P
1606335695.3,286047001.6,N
1606335715.2,286047003.6,Y
1606335735.9,286046998.6,P
1606335755.7,286046998.4,N
1606335775.6,286047000.9,N
1606335795.4,286047000.4,N
1606335815.2,286046999.9,N
1606335835.1,286047000.6,N
1606335836.0,286047000.6,N
1606335855.8,286047002.1,N
1606335875.6,286047001.3,N
1606335895.5,286047002.3,N
1606335915.3,286046999.8,N
1606335935.1,286047000.8,N
1606335955.9,286047004.3,Y
1606335975.7,286047002.6,P
1606335995.5,286047000.0,N
1606336015.4,286047000.2,N
1606336035.2,286047002.5,N
1606336085.0,286047002.3,E
1606336095.9,286047000.2,N
1606336115.7,286047002.8,P
1606336135.5,286047002.6,N
1606336155.4,286047001.0,N
1606336175.2,286047000.5,N
1606336195.0,286047002.8,N
1606336195.9,286047002.8,N
1606336215.8,286047000.1,N
1606336235.6,286046998.2,N
1606336255.4,286046999.3,N
1606336275.3,286046998.3,N
1606336295.1,286047000.7,N
1606336296.0,286047000.7,N
1606336315.8,286047001.0,N
1606336335.7,286046998.3,N
1606336355.5,286046997.0,N
1606336375.3,286046999.5,N
1606336395.1,286046999.5,N
1606336415.9,286046996.7,N
1606336435.7,286047011.9,Y
1606336455.5,286046997.7,P
1606336475.4,286046997.8,N
1606336495.2,286046997.1,N
1606336515.0,286046997.6,N
1606336515.9,286046997.6,N
1606336535.8,286046995.9,Y
1606336555.6,286046998.9,P
1606336575.4,286046999.4,N
1606336595.3,286046996.5,P
1606336615.1,286046997.5,N
1606336635.8,286046996.8,Y
1606336655.7,286046997.7,P
1606336675.5,286046995.3,P
1606336695.3,286046997.9,N
1606336715.2,286046995.5,Y
1606336735.0,286046998.8,P
1606336735.9,286046998.8,N
1606336755.7,286046999.6,N
1606336775.6,286046997.0,Y
1606336795.4,286046998.2,P
1606336815.2,286046998.3,P
1606336835.1,286047001.1,P
1606336836.0,286047001.1,N
1606336855.8,286046998.4,N
1606336875.6,286046999.2,N
1606336895.5,286046996.6,N
1606336915.3,286046999.4,N
1606336935.1,286046997.6,N
1606336955.9,286046997.2,N
1606336975.7,286046999.1,N
1606336995.5,286046996.6,N
1606337015.4,286046996.6,N
1606337035.2,286046997.6,N
1606337055.0,286046995.1,Y
1606337055.9,286046995.1,P
1606337075.8,286046997.8,N
1606337095.6,286046997.6,N
1606337115.4,286046998.0,N
1606337135.3,286046995.5,Y
1606337155.1,286046999.3,P
1606337175.8,286046997.0,P
1606337195.7,286046996.7,P
1606337215.5,286046995.0,Y
1606337235.3,286046999.2,P
1606337255.2,286046997.3,P
1606337275.9,286046999.5,N
1606337295.7,286046997.0,Y
1606337315.6,286046999.6,P
1606337335.4,286046997.5,P
1606337355.2,286046997.1,P
1606337375.1,286046997.4,N
1606337376.0,286046997.4,N
1606337395.8,286046997.1,Y
1606337415.6,286047001.1,P
1606337435.5,286046996.9,N
1606337455.3,286046999.2,N
1606337475.1,286046996.8,N
1606337495.9,286046996.9,N
1606337515.7,286046996.9,N
1606337535.5,286046997.7,N
1606337555.4,286046995.5,Y
1606337575.2,286046996.7,P
1606337595.0,286046999.4,N
1606337595.9,286046999.4,N
1606337615.8,286046999.2,N
1606337635.6,286046999.6,N
1606337655.4,286046996.9,N
1606337675.3,286046995.3,Y
1606337695.1,286046999.4,P
1606337696.0,286046999.4,N
1606337715.8,286046997.3,P
1606337735.7,286046996.6,Y
1606337755.5,286046997.3,P
1606337775.3,286046999.4,N
1606337795.2,286046998.4,N
1606337815.9,286046996.9,Y
1606337835.7,286047001.0,P
1606337855.6,286047001.2,N
1606337875.4,286047001.2,N
1606337895.2,286046998.2,N
1606337915.1,286046998.5,N
1606337916.0,286046998.5,N
1606337935.8,286047001.0,N
1606337955.6,286046999.5,N
1606337975.5,286046999.5,N
1606337995.3,286046997.6,N
